• In Netherlands
  • List of Countries
  • For 7 days
  • Water Temperature
  • Satellite Maps
  • Weather Map
  • Weather Widgets
  • user-avatar
    Login

    Hourly Weather Ashtarak

    Today, 24 May, Wednesday

    Time Temperature Precipitation Wind Pressure Humidity
    00:00 +9°C° 0.2 mm 1 mps 654 mmHg 81%
    01:00 +10°C° 0.5 mm 1 mps 654 mmHg 80%
    02:00 +10°C° 0.5 mm 1 mps 654 mmHg 80%
    03:00 +10°C° 0 mm 1 mps 654 mmHg 79%
    04:00 +10°C° 1.1 mm 1 mps 654 mmHg 81%
    05:00 +10°C° 1.1 mm 1 mps 654 mmHg 83%
    06:00 +10°C° 1.1 mm 1 mps 654 mmHg 85%
    07:00 +12°C° 0.7 mm 1 mps 654 mmHg 79%
    08:00 +13°C° 0.7 mm 1 mps 654 mmHg 74%
    09:00 +15°C° 0.7 mm 1 mps 655 mmHg 68%
    10:00 +16°C° 0.4 mm 1 mps 655 mmHg 64%
    11:00 +19°C° 0.4 mm 1 mps 655 mmHg 60%
    12:00 +20°C° 0.4 mm 1 mps 655 mmHg 56%
    13:00 +20°C° 0.5 mm 1 mps 655 mmHg 56%
    14:00 +20°C° 0.5 mm 1 mps 655 mmHg 57%
    15:00 +20°C° 0.5 mm 1 mps 655 mmHg 58%
    16:00 +19°C° 0.5 mm 1 mps 655 mmHg 60%
    17:00 +19°C° 0.5 mm 1 mps 655 mmHg 63%
    18:00 +18°C° 0.5 mm 1 mps 655 mmHg 65%
    19:00 +15°C° 0.1 mm 2 mps 655 mmHg 70%
    20:00 +13°C° 0.1 mm 2 mps 656 mmHg 75%
    21:00 +12°C° 0.1 mm 2 mps 656 mmHg 80%
    22:00 +10°C° 0 mm 2 mps 656 mmHg 81%
    23:00 +10°C° 0 mm 1 mps 656 mmHg 83%

    Tomorrow, 25 May, Thursday

    Time Temperature Precipitation Wind Pressure Humidity
    00:00 +10°C° 0 mm 1 mps 656 mmHg 84%
    01:00 +9°C° 0 mm 1 mps 655 mmHg 84%
    02:00 +8°C° 0 mm 1 mps 655 mmHg 84%
    03:00 +8°C° 0 mm 1 mps 655 mmHg 84%
    04:00 +9°C° 0 mm 1 mps 656 mmHg 80%
    05:00 +10°C° 0 mm 1 mps 656 mmHg 77%
    06:00 +11°C° 0 mm 1 mps 657 mmHg 73%
    07:00 +13°C° 0 mm 1 mps 657 mmHg 66%
    08:00 +15°C° 0 mm 1 mps 658 mmHg 58%
    09:00 +17°C° 0 mm 2 mps 658 mmHg 51%
    10:00 +18°C° 0 mm 2 mps 658 mmHg 47%
    11:00 +19°C° 0 mm 2 mps 658 mmHg 42%
    12:00 +20°C° 0 mm 2 mps 658 mmHg 38%
    13:00 +21°C° 0 mm 2 mps 658 mmHg 37%
    14:00 +21°C° 0 mm 2 mps 658 mmHg 37%
    15:00 +21°C° 0 mm 2 mps 658 mmHg 36%
    16:00 +20°C° 0.1 mm 2 mps 658 mmHg 40%
    17:00 +19°C° 0.1 mm 2 mps 658 mmHg 45%
    18:00 +20°C° 0.1 mm 1 mps 658 mmHg 49%
    19:00 +16°C° 0.1 mm 1 mps 658 mmHg 54%
    20:00 +14°C° 0.1 mm 1 mps 657 mmHg 60%
    21:00 +12°C° 0.1 mm 1 mps 657 mmHg 65%
    22:00 +11°C° 0 mm 1 mps 657 mmHg 68%
    23:00 +10°C° 0 mm 1 mps 657 mmHg 70%

    Day after tomorrow, 26 May, Friday

    Time Temperature Precipitation Wind Pressure Humidity
    00:00 +10°C° 0 mm 1 mps 657 mmHg 73%
    01:00 +9°C° 0 mm 1 mps 657 mmHg 73%
    02:00 +9°C° 0 mm 1 mps 656 mmHg 74%
    03:00 +8°C° 0 mm 1 mps 656 mmHg 75%
    04:00 +10°C° 0 mm 1 mps 657 mmHg 71%
    05:00 +12°C° 0 mm 1 mps 657 mmHg 66%
    06:00 +13°C° 0 mm 1 mps 658 mmHg 62%
    07:00 +15°C° 0 mm 1 mps 658 mmHg 54%
    08:00 +18°C° 0 mm 1 mps 659 mmHg 46%
    09:00 +20°C° 0 mm 2 mps 659 mmHg 37%
    10:00 +20°C° 0 mm 2 mps 659 mmHg 35%
    11:00 +21°C° 0 mm 2 mps 659 mmHg 33%
    12:00 +22°C° 0 mm 3 mps 658 mmHg 30%
    13:00 +24°C° 0 mm 3 mps 658 mmHg 31%
    14:00 +24°C° 0 mm 3 mps 658 mmHg 31%
    15:00 +24°C° 0 mm 3 mps 658 mmHg 31%
    16:00 +22°C° 0.1 mm 3 mps 658 mmHg 36%
    17:00 +23°C° 0.1 mm 2 mps 657 mmHg 41%
    18:00 +21°C° 0.1 mm 2 mps 657 mmHg 46%
    19:00 +19°C° 0.2 mm 1 mps 657 mmHg 52%
    20:00 +15°C° 0.2 mm 1 mps 656 mmHg 59%
    21:00 +13°C° 0.2 mm 1 mps 656 mmHg 66%
    22:00 +13°C° 0.3 mm 1 mps 656 mmHg 68%
    23:00 +12°C° 0.3 mm 1 mps 656 mmHg 70%

    27 May, Saturday

    Time Temperature Precipitation Wind Pressure Humidity
    00:00 +12°C° 0.3 mm 1 mps 656 mmHg 72%
    01:00 +12°C° 0.3 mm 1 mps 655 mmHg 73%
    02:00 +11°C° 0.3 mm 1 mps 655 mmHg 74%
    03:00 +11°C° 0.3 mm 1 mps 655 mmHg 75%
    04:00 +12°C° 0.4 mm 1 mps 655 mmHg 73%
    05:00 +13°C° 0.4 mm 1 mps 655 mmHg 70%
    06:00 +15°C° 0.4 mm 1 mps 656 mmHg 68%
    07:00 +16°C° 0.3 mm 1 mps 656 mmHg 61%
    08:00 +19°C° 0.3 mm 1 mps 656 mmHg 54%
    09:00 +20°C° 0.3 mm 2 mps 656 mmHg 47%
    10:00 +21°C° 0.2 mm 2 mps 656 mmHg 44%
    11:00 +24°C° 0.2 mm 3 mps 656 mmHg 41%
    12:00 +25°C° 0.2 mm 3 mps 655 mmHg 37%
    13:00 +25°C° 0.4 mm 3 mps 655 mmHg 39%
    14:00 +25°C° 0.4 mm 3 mps 654 mmHg 40%
    15:00 +25°C° 0.4 mm 2 mps 654 mmHg 42%
    16:00 +24°C° 0.7 mm 2 mps 654 mmHg 46%
    17:00 +23°C° 0.7 mm 2 mps 653 mmHg 49%
    18:00 +22°C° 0.7 mm 1 mps 653 mmHg 53%
    19:00 +20°C° 0.4 mm 1 mps 653 mmHg 59%
    20:00 +16°C° 0.4 mm 1 mps 653 mmHg 64%
    21:00 +13°C° 0.4 mm 1 mps 653 mmHg 69%
    22:00 +13°C° 0.1 mm 1 mps 653 mmHg 70%
    23:00 +12°C° 0.1 mm 1 mps 653 mmHg 71%

    28 May, Sunday

    Time Temperature Precipitation Wind Pressure Humidity
    00:00 +11°C° 0.1 mm 1 mps 653 mmHg 72%
    01:00 +11°C° 0 mm 1 mps 653 mmHg 73%
    02:00 +11°C° 0 mm 1 mps 654 mmHg 74%
    03:00 +10°C° 0 mm 1 mps 654 mmHg 75%
    04:00 +12°C° 0 mm 1 mps 654 mmHg 73%
    05:00 +13°C° 0 mm 1 mps 655 mmHg 70%
    06:00 +14°C° 0 mm 1 mps 655 mmHg 68%
    07:00 +16°C° 0 mm 1 mps 656 mmHg 59%
    08:00 +18°C° 0 mm 2 mps 656 mmHg 50%
    09:00 +20°C° 0 mm 2 mps 657 mmHg 42%
    10:00 +23°C° 0 mm 2 mps 657 mmHg 37%
    11:00 +24°C° 0 mm 3 mps 657 mmHg 33%
    12:00 +25°C° 0 mm 3 mps 657 mmHg 29%
    13:00 +25°C° 0 mm 3 mps 656 mmHg 28%
    14:00 +26°C° 0 mm 4 mps 656 mmHg 27%
    15:00 +26°C° 0 mm 4 mps 656 mmHg 26%
    16:00 +25°C° 0 mm 4 mps 656 mmHg 30%
    17:00 +23°C° 0 mm 4 mps 655 mmHg 34%
    18:00 +22°C° 0 mm 4 mps 655 mmHg 38%
    19:00 +19°C° 0 mm 3 mps 655 mmHg 43%
    20:00 +17°C° 0 mm 3 mps 655 mmHg 49%
    21:00 +15°C° 0 mm 2 mps 655 mmHg 54%
    22:00 +14°C° 0 mm 2 mps 655 mmHg 56%
    23:00 +13°C° 0 mm 2 mps 655 mmHg 58%

    29 May, Monday

    Time Temperature Precipitation Wind Pressure Humidity
    00:00 +13°C° 0 mm 2 mps 655 mmHg 60%
    01:00 +12°C° 0 mm 1 mps 655 mmHg 63%
    02:00 +11°C° 0 mm 1 mps 655 mmHg 65%
    03:00 +11°C° 0 mm 1 mps 654 mmHg 67%
    04:00 +12°C° 0 mm 1 mps 655 mmHg 65%
    05:00 +13°C° 0 mm 1 mps 655 mmHg 62%
    06:00 +14°C° 0 mm 1 mps 656 mmHg 60%
    07:00 +16°C° 0.1 mm 1 mps 656 mmHg 54%
    08:00 +18°C° 0.1 mm 2 mps 657 mmHg 48%
    09:00 +20°C° 0.1 mm 2 mps 657 mmHg 42%
    10:00 +21°C° 0.4 mm 2 mps 657 mmHg 41%
    11:00 +21°C° 0.4 mm 3 mps 657 mmHg 40%
    12:00 +22°C° 0.4 mm 3 mps 657 mmHg 40%
    13:00 +22°C° 0.5 mm 3 mps 657 mmHg 41%
    14:00 +22°C° 0.5 mm 3 mps 657 mmHg 43%
    15:00 +22°C° 0.5 mm 3 mps 657 mmHg 45%
    16:00 +21°C° 0.4 mm 3 mps 657 mmHg 49%
    17:00 +20°C° 0.4 mm 3 mps 657 mmHg 53%
    18:00 +19°C° 0.4 mm 3 mps 657 mmHg 57%
    19:00 +17°C° 0.3 mm 3 mps 657 mmHg 63%
    20:00 +14°C° 0.3 mm 3 mps 657 mmHg 70%
    21:00 +13°C° 0.3 mm 2 mps 657 mmHg 76%
    22:00 +12°C° 0.1 mm 2 mps 658 mmHg 78%
    23:00 +12°C° 0.1 mm 2 mps 658 mmHg 80%
    Show more